FW2560 Weather Reports


time (UTC)temp
C
wind
direction
speed
KPH
gust
KPH
rain 1hr
cm
rain 24hr
cm
rain mn
cm
humidity
%
barometer
mb
20260506121005 19 195 16.1 27.4 0.00 0.00 0.00 87 997.5
20260506120504 19 194 17.7 29.0 0.00 0.00 0.00 87 997.6
20260506120005 19 204 19.3 27.4 0.00 0.00 0.00 87 997.6
20260506115505 18 198 19.3 25.7 0.00 0.00 0.00 88 997.6
20260506115005 18 193 16.1 27.4 0.00 0.00 0.00 88 997.7
20260506114504 18 198 19.3 25.7 0.00 0.00 0.00 89 998.0
20260506114005 18 200 16.1 25.7 0.00 0.00 0.00 90 998.0
20260506113504 18 200 16.1 24.1 0.00 0.00 0.00 90 997.8
20260506112504 18 196 12.9 22.5 0.00 0.00 0.00 90 997.7
20260506112004 18 193 11.3 16.1 0.00 0.00 0.00 91 997.6
20260506111505 17 177 14.5 22.5 0.00 0.00 0.00 91 997.7
20260506111005 17 186 8.0 16.1 0.00 0.00 0.00 91 997.6
20260506110504 17 165 8.0 19.3 0.00 0.00 0.00 91 997.4
20260506110005 17 193 8.0 14.5 0.00 0.00 0.00 91 997.3
20260506105004 17 178 8.0 14.5 0.00 0.00 0.00 91 997.4
20260506104504 17 190 8.0 14.5 0.00 0.00 0.00 91 997.5
20260506104004 17 185 8.0 19.3 0.00 0.00 0.00 91 997.5
20260506103505 17 192 9.7 19.3 0.00 0.00 0.00 91 997.6
20260506103004 17 187 9.7 14.5 0.00 0.00 0.00 91 997.6
20260506102504 17 187 9.7 19.3 0.00 0.00 0.00 91 997.6
20260506102004 17 189 11.3 19.3 0.00 0.00 0.00 91 997.5
20260506101504 17 190 9.7 14.5 0.00 0.00 0.00 91 997.4
20260506101005 17 184 6.4 16.1 0.00 0.00 0.00 91 997.2
20260506100504 17 191 8.0 14.5 0.00 0.00 0.00 91 997.2
20260506100005 17 181 8.0 14.5 0.00 0.00 0.00 90 997.2
20260506094504 17 179 6.4 16.1 0.00 0.00 0.00 90 997.3
20260506094005 17 178 8.0 16.1 0.00 0.00 0.00 90 997.4
20260506093504 17 174 4.8 11.3 0.00 0.00 0.00 90 997.4
20260506093004 17 185 8.0 12.9 0.00 0.00 0.00 90 997.5
20260506092005 17 194 8.0 16.1 0.00 0.00 0.00 90 997.5
20260506091505 17 196 9.7 19.3 0.00 0.00 0.00 90 997.5
20260506091004 17 200 11.3 19.3 0.00 0.00 0.00 92 997.7
20260506090505 17 198 12.9 19.3 0.00 0.00 0.00 90 997.7
20260506090004 17 192 14.5 19.3 0.00 0.00 0.00 90 997.7
20260506085505 17 193 11.3 19.3 0.00 0.00 0.00 90 997.7
20260506085004 17 196 12.9 19.3 0.00 0.00 0.00 90 997.7
20260506084504 17 194 9.7 16.1 0.00 0.00 0.00 90 997.7
20260506084005 17 189 9.7 19.3 0.00 0.00 0.00 89 997.7
20260506083004 17 175 11.3 16.1 0.00 0.00 0.00 89 997.7
20260506082004 17 198 9.7 19.3 0.00 0.00 0.00 89 997.6
20260506081504 17 188 6.4 19.3 0.00 0.00 0.00 89 997.6
20260506081004 17 194 3.2 4.8 0.00 0.00 0.00 89 997.7
20260506080504 17 195 9.7 14.5 0.00 0.00 0.00 89 997.5
20260506073504 17 190 8.0 14.5 0.00 0.00 0.00 88 997.5
20260506073004 17 187 14.5 20.9 0.00 0.00 0.00 88 997.5
20260506071504 17 184 6.4 16.1 0.00 0.00 0.00 88 997.5
20260506071004 17 192 8.0 19.3 0.00 0.00 0.00 88 997.4
20260506070504 17 193 11.3 16.1 0.00 0.00 0.00 88 997.5
20260506061504 17 197 16.1 22.5 0.00 0.00 0.00 88 997.9
20260506061004 17 199 17.7 25.7 0.00 0.00 0.00 88 998.0
20260506060504 17 200 14.5 22.5 0.00 0.00 0.00 88 998.1
20260506051004 17 195 19.3 25.7 0.00 0.00 0.00 89 998.6
20260506050504 18 194 17.7 25.7 0.00 0.00 0.00 89 998.6
20260506044504 18 194 17.7 24.1 0.00 0.00 0.00 88 998.6
20260506044004 18 195 16.1 22.5 0.00 0.00 0.00 88 998.7
20260506043505 18 198 14.5 19.3 0.00 0.00 0.00 88 998.7
20260506042504 18 196 17.7 25.7 0.00 0.00 0.00 88 998.8
20260506042004 18 197 19.3 24.1 0.00 0.00 0.00 87 998.8
20260506041004 18 201 16.1 24.1 0.00 0.00 0.00 86 998.9
20260506040505 18 202 17.7 22.5 0.00 0.00 0.00 86 998.8
20260506040005 18 194 17.7 25.7 0.00 0.00 0.00 85 998.8
20260506035504 18 199 19.3 27.4 0.00 0.00 0.00 85 998.8
20260506035004 18 199 22.5 29.0 0.00 0.00 0.00 85 998.8
20260506034504 18 199 20.9 32.2 0.00 0.00 0.00 85 998.7
20260506034003 18 193 20.9 37.0 0.00 0.00 0.00 84 998.7
20260506033504 18 199 22.5 32.2 0.00 0.00 0.00 84 998.7
20260506033004 18 197 20.9 32.2 0.00 0.00 0.00 83 998.7
20260506032504 18 193 20.9 27.4 0.00 0.00 0.00 83 998.7
20260506032004 18 195 16.1 20.9 0.00 0.00 0.00 82 998.7
20260506031503 18 194 16.1 32.2 0.00 0.00 0.00 82 998.7
20260506031004 18 197 17.7 25.7 0.00 0.00 0.00 81 998.7
20260506030504 18 196 19.3 27.4 0.00 0.00 0.00 81 998.8
20260506030004 18 184 14.5 20.9 0.00 0.00 0.00 81 998.8
20260506025503 18 186 14.5 25.7 0.00 0.00 0.00 80 998.8
20260506025004 18 189 9.7 24.1 0.00 0.00 0.00 80 998.8
20260506024505 18 185 16.1 25.7 0.00 0.00 0.00 80 998.9
20260506024004 19 188 11.3 22.5 0.00 0.00 0.00 79 998.9
20260506022504 19 184 16.1 29.0 0.00 0.00 0.00 79 998.9
20260506021504 19 196 19.3 29.0 0.00 0.00 0.00 78 998.8
20260506021004 19 196 17.7 29.0 0.00 0.00 0.00 77 998.7
20260506020504 19 186 16.1 25.7 0.00 0.00 0.00 77 998.6
20260506020004 20 200 14.5 22.5 0.00 0.00 0.00 77 998.6
20260506015504 20 200 19.3 32.2 0.00 0.00 0.00 76 998.6
20260506015003 20 199 20.9 32.2 0.00 0.00 0.00 76 998.6
20260506014503 20 196 14.5 29.0 0.00 0.00 0.00 77 998.6
20260506014004 20 190 20.9 32.2 0.00 0.00 0.00 75 998.5
20260506013506 20 192 20.9 32.2 0.00 0.00 0.00 75 998.5
20260506013006 20 189 19.3 32.2 0.00 0.00 0.00 75 998.4
20260506012505 20 195 20.9 32.2 0.00 0.00 0.00 74 998.4
20260506012006 20 190 19.3 32.2 0.00 0.00 0.00 74 998.4
20260506011506 20 186 20.9 32.2 0.00 0.00 0.00 74 998.4
20260506011006 20 193 22.5 37.0 0.00 0.00 0.00 74 998.3
20260506010506 20 194 22.5 33.8 0.00 0.00 0.00 74 998.4
20260506010006 20 195 20.9 32.2 0.00 0.00 0.00 73 998.4
20260506005505 20 199 25.7 35.4 0.00 0.00 0.00 73 998.4
20260506005005 20 188 25.7 33.8 0.00 0.00 0.00 72 998.3
20260506003505 21 198 25.7 40.2 0.00 0.00 0.00 71 998.1
20260506002505 21 197 22.5 38.6 0.00 0.00 0.00 71 998.0
20260506002005 21 199 20.9 32.2 0.00 0.00 0.00 71 998.1
20260506001505 21 192 19.3 32.2 0.00 0.00 0.00 70 998.0
20260506000505 21 201 22.5 37.0 0.00 0.00 0.00 69 997.8
20260506000005 21 193 27.4 41.8 0.00 0.00 0.00 69 997.7
20260505235005 21 199 20.9 35.4 0.00 0.00 0.00 69 997.5
20260505234505 22 193 19.3 32.2 0.00 0.00 0.00 69 997.5
20260505234005 22 198 19.3 32.2 0.00 0.00 0.00 69 997.5
20260505233506 22 195 17.7 32.2 0.00 0.00 0.00 69 997.3
20260505233005 22 192 16.1 32.2 0.00 0.00 0.00 69 997.4
20260505232505 22 192 22.5 35.4 0.00 0.00 0.00 68 997.4
20260505232005 22 195 19.3 25.7 0.00 0.00 0.00 68 997.3
20260505231505 22 179 20.9 27.4 0.00 0.00 0.00 68 997.2
20260505230505 23 191 16.1 25.7 0.00 0.00 0.00 67 997.2
20260505230006 23 189 25.7 35.4 0.00 0.00 0.00 67 997.1
20260505225505 23 195 20.9 38.6 0.00 0.00 0.00 67 997.1
20260505224505 23 193 29.0 41.8 0.00 0.00 0.00 66 997.1
20260505224006 23 190 29.0 41.8 0.00 0.00 0.00 65 997.1
20260505223505 23 197 25.7 40.2 0.00 0.00 0.00 65 997.1
20260505223005 23 194 27.4 38.6 0.00 0.00 0.00 65 997.1
20260505222005 23 195 25.7 37.0 0.00 0.00 0.00 66 997.2
20260505221505 23 197 22.5 35.4 0.00 0.00 0.00 65 997.2
20260505221005 23 168 20.9 35.4 0.00 0.00 0.00 65 997.3
20260505220005 23 196 24.1 48.3 0.00 0.00 0.00 64 997.1
20260505215505 24 191 20.9 40.2 0.00 0.00 0.00 64 997.1
20260505215005 24 198 24.1 41.8 0.00 0.00 0.00 63 997.1
20260505214505 24 193 24.1 48.3 0.00 0.00 0.00 63 997.0
20260505214006 25 191 24.1 40.2 0.00 0.00 0.00 63 997.0
20260505213505 25 201 17.7 25.7 0.00 0.00 0.00 62 997.0
20260505213005 25 191 25.7 38.6 0.00 0.00 0.00 62 996.9
20260505212505 25 178 22.5 40.2 0.00 0.00 0.00 61 997.0
20260505212005 25 196 32.2 41.8 0.00 0.00 0.00 60 997.0
20260505211505 25 196 20.9 38.6 0.00 0.00 0.00 61 996.9
20260505211005 25 191 20.9 35.4 0.00 0.00 0.00 61 996.9
20260505210506 25 203 27.4 40.2 0.00 0.00 0.00 60 996.9
20260505210005 25 196 22.5 38.6 0.00 0.00 0.00 60 996.9
20260505205505 25 176 20.9 32.2 0.00 0.00 0.00 60 997.0
20260505205006 25 176 27.4 41.8 0.00 0.00 0.00 59 996.9
20260505204505 25 197 27.4 40.2 0.00 0.00 0.00 59 996.9
20260505204005 25 195 27.4 38.6 0.00 0.00 0.00 59 996.9
20260505203505 25 177 19.3 35.4 0.00 0.00 0.00 58 997.0
20260505203005 26 201 30.6 41.8 0.00 0.00 0.00 57 997.0
20260505202505 26 195 27.4 45.1 0.00 0.00 0.00 57 997.1
20260505202005 26 197 25.7 41.8 0.00 0.00 0.00 57 997.1
20260505201505 26 199 22.5 45.1 0.00 0.00 0.00 56 997.2
20260505201006 26 199 29.0 41.8 0.00 0.00 0.00 55 997.3
20260505200506 26 188 27.4 41.8 0.00 0.00 0.00 54 997.3
20260505200005 26 191 22.5 35.4 0.00 0.00 0.00 53 997.2
20260505195505 26 186 27.4 40.2 0.00 0.00 0.00 52 997.3
20260505195005 26 195 27.4 41.8 0.00 0.00 0.00 53 997.5
20260505194505 26 185 22.5 38.6 0.00 0.00 0.00 52 997.6
20260505194005 26 199 25.7 41.8 0.00 0.00 0.00 52 997.7
20260505193506 26 198 32.2 45.1 0.00 0.00 0.00 52 997.6
20260505193005 26 191 19.3 33.8 0.00 0.00 0.00 53 997.7
20260505192505 26 189 17.7 32.2 0.00 0.00 0.00 52 997.9
20260505192005 26 199 22.5 38.6 0.00 0.00 0.00 52 997.9
20260505191505 26 190 27.4 35.4 0.00 0.00 0.00 54 998.0
20260505191005 26 196 29.0 41.8 0.00 0.00 0.00 52 998.2
20260505190505 26 184 30.6 40.2 0.00 0.00 0.00 52 998.2
20260505190005 26 188 27.4 38.6 0.00 0.00 0.00 52 998.2
20260505185505 26 204 27.4 48.3 0.00 0.00 0.00 53 998.2
20260505185005 26 184 24.1 41.8 0.00 0.00 0.00 53 998.2
20260505184505 26 202 20.9 32.2 0.00 0.00 0.00 54 998.3
20260505184005 26 192 29.0 41.8 0.00 0.00 0.00 53 998.2
20260505183505 26 192 16.1 35.4 0.00 0.00 0.00 53 998.3
20260505183005 26 199 30.6 38.6 0.00 0.00 0.00 54 998.3
20260505182505 26 205 27.4 38.6 0.00 0.00 0.00 53 998.3
20260505182005 26 191 20.9 32.2 0.00 0.00 0.00 53 998.3
20260505181505 26 192 27.4 40.2 0.00 0.00 0.00 53 998.2
20260505181005 26 199 25.7 37.0 0.00 0.00 0.00 52 998.3
20260505180505 26 200 32.2 38.6 0.00 0.00 0.00 52 998.4
20260505180006 26 222 20.9 32.2 0.00 0.00 0.00 55 998.5
20260505175005 26 220 22.5 32.2 0.00 0.00 0.00 55 998.6
20260505174505 26 205 24.1 32.2 0.00 0.00 0.00 53 998.6
20260505174005 26 192 22.5 35.4 0.00 0.00 0.00 53 998.6
20260505173505 26 194 20.9 32.2 0.00 0.00 0.00 53 998.8
20260505173005 26 220 19.3 32.2 0.00 0.00 0.00 56 998.7
20260505172505 26 158 17.7 32.2 0.00 0.00 0.00 54 998.8
20260505171505 26 212 20.9 35.4 0.00 0.00 0.00 55 999.0
20260505171005 25 214 20.9 32.2 0.00 0.00 0.00 57 999.0
20260505170005 25 200 25.7 35.4 0.00 0.00 0.00 57 999.1
20260505165505 25 255 22.5 32.2 0.00 0.00 0.00 55 999.1
20260505165005 25 219 19.3 29.0 0.00 0.00 0.00 57 999.2
20260505164505 25 207 19.3 32.2 0.00 0.00 0.00 57 999.2
20260505164004 25 219 24.1 33.8 0.00 0.00 0.00 56 999.2
20260505163505 25 237 27.4 37.0 0.00 0.00 0.00 56 999.2
20260505163005 25 226 24.1 32.2 0.00 0.00 0.00 56 999.2
20260505162505 25 222 22.5 38.6 0.00 0.00 0.00 57 999.2
20260505162004 25 239 25.7 35.4 0.00 0.00 0.00 57 999.4
20260505161505 25 212 25.7 40.2 0.00 0.00 0.00 57 999.4
20260505161005 25 216 24.1 38.6 0.00 0.00 0.00 58 999.5
20260505160505 25 201 25.7 38.6 0.00 0.00 0.00 58 999.5
20260505153004 23 220 19.3 32.2 0.00 0.00 0.00 62 999.6
20260505152505 23 218 22.5 32.2 0.00 0.00 0.00 62 999.6
20260505151504 23 202 20.9 32.2 0.00 0.00 0.00 64 999.7
20260505151004 23 216 20.9 32.2 0.00 0.00 0.00 63 999.7
20260505150505 23 220 22.5 29.0 0.00 0.00 0.00 63 999.5
20260505140505 21 237 19.3 29.0 0.00 0.00 0.00 68 999.8
20260505125005 19 218 16.1 29.0 0.00 0.00 0.00 77 999.8
20260505124504 18 222 16.1 29.0 0.00 0.00 0.00 77 999.8
20260505124005 18 231 16.1 25.7 0.00 0.00 0.00 79 999.8
20260505123504 18 238 20.9 27.4 0.00 0.00 0.00 80 999.8
20260505123004 18 232 14.5 24.1 0.00 0.00 0.00 81 999.8
20260505122504 17 209 17.7 24.1 0.00 0.00 0.00 82 999.8